Tracking 30115 objects as of 17-Jan-2025
HD Live streaming from Space Station
objects crossing your sky now

ONEWEB-0211

Track ONEWEB-0211 now!
10-day predictions
ONEWEB-0211 is classified as:


NORAD ID: 48767
Int'l Code: 2021-045A
Perigee: 1,207.6 km
Apogee: 1,210.2 km
Inclination: 87.9 °
Period: 109.5 minutes
Semi major axis: 7579 km
RCS: Unknown
Launch date: May 28, 2021
Source: United Kingdom (UK)
Launch site: VOSTOCHNY COSMODROME (VOSTO)
Your satellite tracking list
Your tracking list is empty




NASA's NSSDC Master Catalog

Two Line Element Set (TLE):
1 48767U 21045A   25016.43759389 -.00000082  00000-0 -25182-3 0  9999
2 48767  87.9078   2.0603 0001679  92.3019 267.8304 13.15550377176473
Source of the keplerian elements: AFSPC